Weather observations for the past three days for
Page, Page Municipal Airport
Imperial (Metric)
Date Time (mst) Wind (mph) Vis. (mi.) Weather Sky Cond. Temperature (ºF) Relative Humidity Wind Chill (°F) Heat Index (°F) Pressure Precipitation (in)
Air Dwpt 6 hour altimeter (in) sea level (mb) 1 hr 3 hr 6 hr
Max. Min.
06 00:53 W 8 G 18 10.00 A Few Clouds FEW100 60.1 24.1 25% 29.87 1006.9
05 23:53 SW 9 10.00 Overcast OVC095 62.1 24.1 23% 29.87 1006.6
05 22:53 W 13 G 24 10.00 Overcast OVC095 63 24.1 71.1 63 23% 29.85 1006.2
05 21:53 W 10 G 25 10.00 Overcast OVC090 64 21.9 20% 29.84 1005.8
05 20:53 W 10 G 25 10.00 Overcast OVC100 64.9 21 19% 29.8 1004.7
05 19:53 W 9 G 21 10.00 Overcast OVC110 66.9 21 17% 29.76 1003.3
05 18:53 Vrbl 6 10.00 Fair CLR 68 17.1 14% 29.73 1002.4
05 17:53 W 13 G 23 10.00 A Few Clouds FEW110 70 17.1 13% 29.72 1002.0
05 16:53 W 13 G 24 10.00 Fair CLR 71.1 19.9 72 61 14% 29.71 1001.7
05 15:53 W 8 10.00 Fair CLR 70 21 16% 29.73 1002.0
05 14:53 N 9 10.00 Fair CLR 70 21 16% 29.75 1002.6
05 13:53 Calm 10.00 Fair CLR 69.1 23 17% 29.78 1003.9
05 12:53 NE 8 10.00 Fair CLR 66.9 23 19% 29.81 1004.7
05 11:53 S 8 10.00 Fair CLR 64.9 23 20% 29.82 1005.2
05 10:53 Vrbl 3 10.00 Fair CLR 61 23 63 48.9 23% 29.85 1006.1
05 09:53 N 8 10.00 Fair CLR 62.1 25 24% 29.85 1006.0
05 08:53 Calm 10.00 Fair CLR 59 25 27% 29.85 1006.3
05 07:53 W 12 G 20 10.00 Fair CLR 57 27 32% 29.86 1006.7
05 06:53 SW 5 10.00 Fair CLR 54 25 33% 29.87 1007.0
05 05:53 S 6 10.00 Fair CLR 51.1 23 33% 29.86 1006.8
05 04:53 Calm 10.00 Fair CLR 52 21.9 64 51.1 31% 29.86 1006.5
05 03:53 Calm 10.00 Fair CLR 53.1 21 28% 29.86 1006.7
05 02:53 Vrbl 3 10.00 Fair CLR 57 21 25% 29.86 1006.4
05 01:53 Vrbl 5 10.00 Fair CLR 57 19 23% 29.86 1006.3
05 00:53 Calm 10.00 Fair CLR 59 18 20% 29.86 1006.1
04 23:53 W 5 10.00 Fair CLR 61 19.9 20% 29.85 1005.9
04 22:53 SW 6 10.00 Fair CLR 64 21.9 73 64 20% 29.84 1005.4
04 21:53 Vrbl 5 10.00 Fair CLR 66 25 21% 29.82 1005.0
04 20:53 SW 7 G 20 10.00 Fair CLR 66.9 25 20% 29.81 1004.5
04 19:53 SW 6 10.00 Fair CLR 69.1 21.9 17% 29.77 1003.3
04 18:53 W 6 10.00 Fair CLR 70 24.1 18% 29.77 1003.3
04 17:53 W 8 10.00 Fair CLR 72 21.9 15% 29.77 1003.3
04 16:53 SW 7 G 20 10.00 Fair CLR 73 19.9 73.9 66 13% 29.78 1003.5
04 15:53 SW 8 G 22 10.00 Fair CLR 73 21 14% 29.79 1003.7
04 14:53 SW 9 G 25 10.00 Fair CLR 73 21 14% 29.82 1004.5
04 13:53 W 10 G 23 10.00 Fair CLR 72 23 16% 29.83 1005.1
04 12:53 S 14 G 18 10.00 Partly Cloudy SCT100 72 27 19% 29.85 1005.9
04 11:53 Vrbl 3 10.00 Fair CLR 69.1 35.1 29% 29.87 1006.8
04 10:53 N 3 10.00 Fair CLR 66 37 66.9 55.9 34% 29.9 1007.6
04 09:53 NE 5 10.00 Fair CLR 64 39 40% 29.9 1007.8
04 08:53 N 5 10.00 Fair CLR 61 39 44% 29.91 1008.4
04 07:53 NW 3 10.00 Fair CLR 59 39 48% 29.92 1008.5
04 06:53 Calm 10.00 Fair CLR 57.9 37 46% 29.91 1008.0
04 05:53 Calm 10.00 Fair CLR 55.9 37.9 51% 29.9 1007.7
04 04:53 Calm 10.00 Partly Cloudy SCT100 57 37.9 61 57 49% 29.89 1007.4
04 03:53 Calm 6.00 Fair with Haze CLR 57 37 47% 29.89 1006.9
04 02:53 Calm 10.00 Fair CLR 59 37.9 46% 29.89 1006.7
04 01:53 S 5 10.00 Fair CLR 59 37.9 46% 29.89 1006.4
04 00:53 W 5 10.00 Fair CLR 60.1 39 46% 29.89 1006.7
03 23:53 SW 5 10.00 Fair CLR 59 39 48% 29.89 1007.1
03 22:53 SW 3 10.00 Fair CLR 61 39 73 61 44% 29.91 1007.9
03 21:53 W 3 10.00 A Few Clouds FEW100 63 39.9 43% 29.92 1008.1
03 20:53 W 8 G 18 10.00 A Few Clouds FEW120 64 39.9 41% 29.91 1008.0
03 19:53 W 10 G 26 10.00 Mostly Cloudy BKN110 66 39 37% 29.87 1006.9
03 18:53 Calm 10.00 Fair CLR 72 32 23% 29.84 1005.4
03 17:53 SW 5 10.00 Partly Cloudy SCT110 73 33.1 23% 29.85 1006.0
03 16:53 SW 10 G 23 10.00 Mostly Cloudy BKN110 72 35.1 82 70 26% 29.87 1006.7
03 15:53 SW 10 G 20 10.00 Fair CLR 78.1 28.9 16% 77 29.86 1005.5
03 14:53 S 14 G 25 10.00 Mostly Cloudy BKN110 79 28 15% 78 29.87 1006.1
03 13:53 S 12 G 18 10.00 A Few Clouds FEW110 80.1 27 14% 78 29.91 1007.1
03 12:53 Calm 10.00 Fair CLR 79 25 14% 78 29.94 1008.2
03 11:53 NE 9 10.00 Fair CLR 75 24.1 15% 75 29.98 1009.8
03 10:53 Vrbl 3 10.00 Fair CLR 71.1 21.9 73 55 16% 30.02 1011.3
03 09:53 NW 6 10.00 Fair CLR 68 21 17% 30.05 1012.5
03 08:53 Vrbl 3 10.00 Fair CLR 63 21 20% 30.06 1013.1
03 07:53 W 3 10.00 A Few Clouds FEW120 60.1 23 24% 30.06 1013.2
03 06:53 Vrbl 3 10.00 Fair CLR 59 23 25% 30.04 1012.5
03 05:53 SW 3 10.00 Fair CLR 55.9 21 26% 30.04 1012.4
03 04:53 SE 5 10.00 Fair CLR 57 19.9 64.9 55.9 24% 30.02 1011.6
03 03:53 S 9 10.00 Fair CLR 60.1 19 20% 30.02 1011.3
03 02:53 S 3 10.00 Fair CLR 57 21.9 26% 30.02 1011.7
03 01:53 Calm 10.00 Fair CLR 59 21 23% 30.03 1011.9
Date Time (mst) Wind (mph) Vis. (mi.) Weather Sky Cond. Air Dwpt Max. Min. Relative Humidity Wind Chill (°F) Heat Index (°F) altimeter (in) sea level (mb) 1 hr 3 hr 6 hr
6 hour
Temperature (ºF) Pressure Precipitation (in)